station,date_time,water_elev
364635089145003,05/02/2011 23:03,302.2
364635089145003,05/02/2011 23:04,302.2
364635089145003,05/02/2011 23:05,302.2
364635089145003,05/02/2011 23:06,302.2
364635089145003,05/02/2011 23:07,302.2
364635089145003,05/02/2011 23:08,302.21
364635089145003,05/02/2011 23:09,302.21
364635089145003,05/02/2011 23:10,302.21
364635089145003,05/02/2011 23:11,302.21
364635089145003,05/02/2011 23:12,302.22
364635089145003,05/02/2011 23:13,302.21
364635089145003,05/02/2011 23:14,302.21
364635089145003,05/02/2011 23:15,302.23
364635089145003,05/02/2011 23:16,302.22
364635089145003,05/02/2011 23:17,302.23
364635089145003,05/02/2011 23:18,302.23
364635089145003,05/02/2011 23:19,302.23
364635089145003,05/02/2011 23:20,302.23
364635089145003,05/02/2011 23:21,302.24
364635089145003,05/02/2011 23:22,302.24
364635089145003,05/02/2011 23:23,302.24
364635089145003,05/02/2011 23:24,302.23
364635089145003,05/02/2011 23:25,302.24
364635089145003,05/02/2011 23:26,302.23
364635089145003,05/02/2011 23:27,302.23
364635089145003,05/02/2011 23:28,302.23
364635089145003,05/02/2011 23:29,302.24
364635089145003,05/02/2011 23:30,302.26
364635089145003,05/02/2011 23:31,302.26
364635089145003,05/02/2011 23:32,302.27
364635089145003,05/02/2011 23:33,302.26
364635089145003,05/02/2011 23:34,302.26
364635089145003,05/02/2011 23:35,302.26
364635089145003,05/02/2011 23:36,302.28
364635089145003,05/02/2011 23:37,302.28
364635089145003,05/02/2011 23:38,302.27
364635089145003,05/02/2011 23:39,302.27
364635089145003,05/02/2011 23:40,302.27
364635089145003,05/02/2011 23:41,302.27
364635089145003,05/02/2011 23:42,302.28
364635089145003,05/02/2011 23:43,302.28
364635089145003,05/02/2011 23:44,302.28
364635089145003,05/02/2011 23:45,302.27
364635089145003,05/02/2011 23:46,302.27
364635089145003,05/02/2011 23:47,302.28
364635089145003,05/02/2011 23:48,302.28
364635089145003,05/02/2011 23:49,302.28
364635089145003,05/02/2011 23:50,302.28
364635089145003,05/02/2011 23:51,302.28
364635089145003,05/02/2011 23:52,302.3
364635089145003,05/02/2011 23:53,302.29
364635089145003,05/02/2011 23:54,302.29
364635089145003,05/02/2011 23:55,302.29
364635089145003,05/02/2011 23:56,302.29
364635089145003,05/02/2011 23:57,302.3
364635089145003,05/02/2011 23:58,302.3
364635089145003,05/02/2011 23:59,302.29
364635089145003,05/03/2011 00:00,302.3
364635089145003,05/03/2011 00:01,302.31
364635089145003,05/03/2011 00:02,302.31
364635089145003,05/03/2011 00:03,302.32
364635089145003,05/03/2011 00:04,302.32
364635089145003,05/03/2011 00:05,302.33
364635089145003,05/03/2011 00:06,302.34
364635089145003,05/03/2011 00:07,302.33
364635089145003,05/03/2011 00:08,302.33
364635089145003,05/03/2011 00:09,302.32
364635089145003,05/03/2011 00:10,302.33
364635089145003,05/03/2011 00:11,302.34
364635089145003,05/03/2011 00:12,302.34
364635089145003,05/03/2011 00:13,302.36
364635089145003,05/03/2011 00:14,302.36
364635089145003,05/03/2011 00:15,302.37
364635089145003,05/03/2011 00:16,302.37
364635089145003,05/03/2011 00:17,302.37
364635089145003,05/03/2011 00:18,302.38
364635089145003,05/03/2011 00:19,302.38
364635089145003,05/03/2011 00:20,302.37
364635089145003,05/03/2011 00:21,302.39
364635089145003,05/03/2011 00:22,302.39
364635089145003,05/03/2011 00:23,302.41
364635089145003,05/03/2011 00:24,302.41
364635089145003,05/03/2011 00:25,302.4
364635089145003,05/03/2011 00:26,302.42
364635089145003,05/03/2011 00:27,302.43
364635089145003,05/03/2011 00:28,302.44
364635089145003,05/03/2011 00:29,302.44
364635089145003,05/03/2011 00:30,302.43
364635089145003,05/03/2011 00:31,302.42
364635089145003,05/03/2011 00:32,302.45
364635089145003,05/03/2011 00:33,302.46
364635089145003,05/03/2011 00:34,302.48
364635089145003,05/03/2011 00:35,302.49
364635089145003,05/03/2011 00:36,302.48
364635089145003,05/03/2011 00:37,302.49
364635089145003,05/03/2011 00:38,302.48
364635089145003,05/03/2011 00:39,302.5
364635089145003,05/03/2011 00:40,302.52
364635089145003,05/03/2011 00:41,302.53
364635089145003,05/03/2011 00:42,302.54
364635089145003,05/03/2011 00:43,302.53
364635089145003,05/03/2011 00:44,302.56
364635089145003,05/03/2011 00:45,302.57
364635089145003,05/03/2011 00:46,302.57
364635089145003,05/03/2011 00:47,302.58
364635089145003,05/03/2011 00:48,302.6
364635089145003,05/03/2011 00:49,302.61
364635089145003,05/03/2011 00:50,302.6
364635089145003,05/03/2011 00:51,302.62
364635089145003,05/03/2011 00:52,302.64
364635089145003,05/03/2011 00:53,302.66
364635089145003,05/03/2011 00:54,302.66
364635089145003,05/03/2011 00:55,302.68
364635089145003,05/03/2011 00:56,302.68
364635089145003,05/03/2011 00:57,302.7
364635089145003,05/03/2011 00:58,302.72
364635089145003,05/03/2011 00:59,302.72
364635089145003,05/03/2011 01:00,302.73
364635089145003,05/03/2011 01:01,302.74
364635089145003,05/03/2011 01:02,302.77
364635089145003,05/03/2011 01:03,302.76
364635089145003,05/03/2011 01:04,302.79
364635089145003,05/03/2011 01:05,302.81
364635089145003,05/03/2011 01:06,302.82
364635089145003,05/03/2011 01:07,302.83
364635089145003,05/03/2011 01:08,302.85
364635089145003,05/03/2011 01:09,302.87
364635089145003,05/03/2011 01:10,302.88
364635089145003,05/03/2011 01:11,302.88
364635089145003,05/03/2011 01:12,302.91
364635089145003,05/03/2011 01:13,302.93
364635089145003,05/03/2011 01:14,302.93
364635089145003,05/03/2011 01:15,302.96
364635089145003,05/03/2011 01:16,302.98
364635089145003,05/03/2011 01:17,303
364635089145003,05/03/2011 01:18,303
364635089145003,05/03/2011 01:19,303.01
364635089145003,05/03/2011 01:20,303.01
364635089145003,05/03/2011 01:21,303.04
364635089145003,05/03/2011 01:22,303.07
364635089145003,05/03/2011 01:23,303.08
364635089145003,05/03/2011 01:24,303.11
364635089145003,05/03/2011 01:25,303.14
364635089145003,05/03/2011 01:26,303.17
364635089145003,05/03/2011 01:27,303.19
364635089145003,05/03/2011 01:28,303.21
364635089145003,05/03/2011 01:29,303.22
364635089145003,05/03/2011 01:30,303.23
364635089145003,05/03/2011 01:31,303.27
364635089145003,05/03/2011 01:32,303.29
364635089145003,05/03/2011 01:33,303.31
364635089145003,05/03/2011 01:34,303.34
364635089145003,05/03/2011 01:35,303.37
364635089145003,05/03/2011 01:36,303.38
364635089145003,05/03/2011 01:37,303.4
364635089145003,05/03/2011 01:38,303.43
364635089145003,05/03/2011 01:39,303.46
364635089145003,05/03/2011 01:40,303.48
364635089145003,05/03/2011 01:41,303.51
364635089145003,05/03/2011 01:42,303.54
364635089145003,05/03/2011 01:43,303.56
364635089145003,05/03/2011 01:44,303.6
364635089145003,05/03/2011 01:45,303.63
364635089145003,05/03/2011 01:46,303.66
364635089145003,05/03/2011 01:47,303.7
364635089145003,05/03/2011 01:48,303.71
364635089145003,05/03/2011 01:49,303.74
364635089145003,05/03/2011 01:50,303.77
364635089145003,05/03/2011 01:51,303.8
364635089145003,05/03/2011 01:52,303.83
364635089145003,05/03/2011 01:53,303.87
364635089145003,05/03/2011 01:54,303.9
364635089145003,05/03/2011 01:55,303.93
364635089145003,05/03/2011 01:56,303.96
364635089145003,05/03/2011 01:57,303.99
364635089145003,05/03/2011 01:58,304.02
364635089145003,05/03/2011 01:59,304.06
364635089145003,05/03/2011 02:00,304.09
364635089145003,05/03/2011 02:01,304.15
364635089145003,05/03/2011 02:02,304.18
364635089145003,05/03/2011 02:03,304.22
364635089145003,05/03/2011 02:04,304.25
364635089145003,05/03/2011 02:05,304.28
364635089145003,05/03/2011 02:06,304.32
364635089145003,05/03/2011 02:07,304.35
364635089145003,05/03/2011 02:08,304.39
364635089145003,05/03/2011 02:09,304.42
364635089145003,05/03/2011 02:10,304.46
364635089145003,05/03/2011 02:11,304.51
364635089145003,05/03/2011 02:12,304.54
364635089145003,05/03/2011 02:13,304.57
364635089145003,05/03/2011 02:14,304.61
364635089145003,05/03/2011 02:15,304.65
364635089145003,05/03/2011 02:16,304.68
364635089145003,05/03/2011 02:17,304.73
364635089145003,05/03/2011 02:18,304.76
364635089145003,05/03/2011 02:19,304.79
364635089145003,05/03/2011 02:20,304.83
364635089145003,05/03/2011 02:21,304.87
364635089145003,05/03/2011 02:22,304.9
364635089145003,05/03/2011 02:23,304.93
364635089145003,05/03/2011 02:24,304.95
364635089145003,05/03/2011 02:25,304.98
364635089145003,05/03/2011 02:26,305.02
364635089145003,05/03/2011 02:27,305.06
364635089145003,05/03/2011 02:28,305.09
364635089145003,05/03/2011 02:29,305.13
364635089145003,05/03/2011 02:30,305.16
364635089145003,05/03/2011 02:31,305.2
364635089145003,05/03/2011 02:32,305.23
364635089145003,05/03/2011 02:33,305.26
364635089145003,05/03/2011 02:34,305.3
364635089145003,05/03/2011 02:35,305.32
364635089145003,05/03/2011 02:36,305.35
364635089145003,05/03/2011 02:37,305.38
364635089145003,05/03/2011 02:38,305.42
364635089145003,05/03/2011 02:39,305.44
364635089145003,05/03/2011 02:40,305.47
364635089145003,05/03/2011 02:41,305.5
364635089145003,05/03/2011 02:42,305.54
364635089145003,05/03/2011 02:43,305.56
364635089145003,05/03/2011 02:44,305.59
364635089145003,05/03/2011 02:45,305.63
364635089145003,05/03/2011 02:46,305.65
364635089145003,05/03/2011 02:47,305.67
364635089145003,05/03/2011 02:48,305.71
364635089145003,05/03/2011 02:49,305.72
364635089145003,05/03/2011 02:50,305.76
364635089145003,05/03/2011 02:51,305.79
364635089145003,05/03/2011 02:52,305.81
364635089145003,05/03/2011 02:53,305.83
364635089145003,05/03/2011 02:54,305.86
364635089145003,05/03/2011 02:55,305.89
364635089145003,05/03/2011 02:56,305.92
364635089145003,05/03/2011 02:57,305.95
364635089145003,05/03/2011 02:58,305.98
364635089145003,05/03/2011 02:59,306.01
364635089145003,05/03/2011 03:00,306.04
364635089145003,05/03/2011 03:01,306.05
364635089145003,05/03/2011 03:02,306.09
364635089145003,05/03/2011 03:03,306.11
364635089145003,05/03/2011 03:04,306.13
364635089145003,05/03/2011 03:05,306.16
364635089145003,05/03/2011 03:06,306.18
364635089145003,05/03/2011 03:07,306.2
364635089145003,05/03/2011 03:08,306.23
364635089145003,05/03/2011 03:09,306.24
364635089145003,05/03/2011 03:10,306.27
364635089145003,05/03/2011 03:11,306.29
364635089145003,05/03/2011 03:12,306.32
364635089145003,05/03/2011 03:13,306.34
364635089145003,05/03/2011 03:14,306.37
364635089145003,05/03/2011 03:15,306.39
364635089145003,05/03/2011 03:16,306.42
364635089145003,05/03/2011 03:17,306.42
364635089145003,05/03/2011 03:18,306.45
364635089145003,05/03/2011 03:19,306.46
364635089145003,05/03/2011 03:20,306.48
364635089145003,05/03/2011 03:21,306.5
364635089145003,05/03/2011 03:22,306.53
364635089145003,05/03/2011 03:23,306.55
364635089145003,05/03/2011 03:24,306.58
364635089145003,05/03/2011 03:25,306.59
364635089145003,05/03/2011 03:26,306.62
364635089145003,05/03/2011 03:27,306.63
364635089145003,05/03/2011 03:28,306.64
364635089145003,05/03/2011 03:29,306.67
364635089145003,05/03/2011 03:30,306.68
364635089145003,05/03/2011 03:31,306.7
364635089145003,05/03/2011 03:32,306.71
364635089145003,05/03/2011 03:33,306.74
364635089145003,05/03/2011 03:34,306.75
364635089145003,05/03/2011 03:35,306.77
364635089145003,05/03/2011 03:36,306.78
364635089145003,05/03/2011 03:37,306.81
364635089145003,05/03/2011 03:38,306.82
364635089145003,05/03/2011 03:39,306.85
364635089145003,05/03/2011 03:40,306.86
364635089145003,05/03/2011 03:41,306.87
364635089145003,05/03/2011 03:42,306.89
364635089145003,05/03/2011 03:43,306.9
364635089145003,05/03/2011 03:44,306.92
364635089145003,05/03/2011 03:45,306.93
364635089145003,05/03/2011 03:46,306.94
364635089145003,05/03/2011 03:47,306.96
364635089145003,05/03/2011 03:48,306.98
364635089145003,05/03/2011 03:49,307
364635089145003,05/03/2011 03:50,307.01
364635089145003,05/03/2011 03:51,307.03
364635089145003,05/03/2011 03:52,307.03
364635089145003,05/03/2011 03:53,307.05
364635089145003,05/03/2011 03:54,307.07
364635089145003,05/03/2011 03:55,307.08
364635089145003,05/03/2011 03:56,307.1
364635089145003,05/03/2011 03:57,307.11
364635089145003,05/03/2011 03:58,307.12
364635089145003,05/03/2011 03:59,307.14
364635089145003,05/03/2011 04:00,307.15
364635089145003,05/03/2011 04:01,307.16
364635089145003,05/03/2011 04:02,307.17
364635089145003,05/03/2011 04:03,307.18
364635089145003,05/03/2011 04:04,307.2
364635089145003,05/03/2011 04:05,307.21
364635089145003,05/03/2011 04:06,307.22
364635089145003,05/03/2011 04:07,307.24
364635089145003,05/03/2011 04:08,307.25
364635089145003,05/03/2011 04:09,307.26
364635089145003,05/03/2011 04:10,307.27
364635089145003,05/03/2011 04:11,307.29
364635089145003,05/03/2011 04:12,307.3
364635089145003,05/03/2011 04:13,307.3
364635089145003,05/03/2011 04:14,307.32
364635089145003,05/03/2011 04:15,307.32
364635089145003,05/03/2011 04:16,307.35
364635089145003,05/03/2011 04:17,307.35
364635089145003,05/03/2011 04:18,307.36
364635089145003,05/03/2011 04:19,307.38
364635089145003,05/03/2011 04:20,307.39
364635089145003,05/03/2011 04:21,307.4
364635089145003,05/03/2011 04:22,307.4
364635089145003,05/03/2011 04:23,307.41
364635089145003,05/03/2011 04:24,307.42
364635089145003,05/03/2011 04:25,307.43
364635089145003,05/03/2011 04:26,307.44
364635089145003,05/03/2011 04:27,307.45
364635089145003,05/03/2011 04:28,307.46
364635089145003,05/03/2011 04:29,307.47
364635089145003,05/03/2011 04:30,307.48
364635089145003,05/03/2011 04:31,307.49
364635089145003,05/03/2011 04:32,307.51
364635089145003,05/03/2011 04:33,307.52
364635089145003,05/03/2011 04:34,307.52
364635089145003,05/03/2011 04:35,307.53
364635089145003,05/03/2011 04:36,307.54
364635089145003,05/03/2011 04:37,307.55
364635089145003,05/03/2011 04:38,307.55
364635089145003,05/03/2011 04:39,307.56
364635089145003,05/03/2011 04:40,307.57
364635089145003,05/03/2011 04:41,307.58
364635089145003,05/03/2011 04:42,307.58
364635089145003,05/03/2011 04:43,307.6
364635089145003,05/03/2011 04:44,307.6
364635089145003,05/03/2011 04:45,307.62
364635089145003,05/03/2011 04:46,307.62
364635089145003,05/03/2011 04:47,307.64
364635089145003,05/03/2011 04:48,307.65
364635089145003,05/03/2011 04:49,307.66
364635089145003,05/03/2011 04:50,307.66
364635089145003,05/03/2011 04:51,307.66
364635089145003,05/03/2011 04:52,307.69
364635089145003,05/03/2011 04:53,307.69
364635089145003,05/03/2011 04:54,307.7
364635089145003,05/03/2011 04:55,307.71
364635089145003,05/03/2011 04:56,307.72
364635089145003,05/03/2011 04:57,307.73
364635089145003,05/03/2011 04:58,307.74
364635089145003,05/03/2011 04:59,307.74
364635089145003,05/03/2011 05:00,307.74
364635089145003,05/03/2011 05:01,307.76
364635089145003,05/03/2011 05:02,307.76
364635089145003,05/03/2011 05:03,307.78
364635089145003,05/03/2011 05:04,307.79
364635089145003,05/03/2011 05:05,307.8
364635089145003,05/03/2011 05:06,307.81
364635089145003,05/03/2011 05:07,307.8
364635089145003,05/03/2011 05:08,307.81
364635089145003,05/03/2011 05:09,307.83
364635089145003,05/03/2011 05:10,307.84
364635089145003,05/03/2011 05:11,307.84
364635089145003,05/03/2011 05:12,307.85
364635089145003,05/03/2011 05:13,307.85
364635089145003,05/03/2011 05:14,307.85
364635089145003,05/03/2011 05:15,307.86
364635089145003,05/03/2011 05:16,307.86
364635089145003,05/03/2011 05:17,307.88
364635089145003,05/03/2011 05:18,307.88
364635089145003,05/03/2011 05:19,307.89
364635089145003,05/03/2011 05:20,307.9
364635089145003,05/03/2011 05:21,307.92
364635089145003,05/03/2011 05:22,307.92
364635089145003,05/03/2011 05:23,307.93
364635089145003,05/03/2011 05:24,307.94
364635089145003,05/03/2011 05:25,307.94
364635089145003,05/03/2011 05:26,307.95
364635089145003,05/03/2011 05:27,307.95
364635089145003,05/03/2011 05:28,307.96
364635089145003,05/03/2011 05:29,307.96
364635089145003,05/03/2011 05:30,307.96
364635089145003,05/03/2011 05:31,307.98
364635089145003,05/03/2011 05:32,307.99
364635089145003,05/03/2011 05:33,307.99
364635089145003,05/03/2011 05:34,308
364635089145003,05/03/2011 05:35,308.01
364635089145003,05/03/2011 05:36,308.01
364635089145003,05/03/2011 05:37,308.03
364635089145003,05/03/2011 05:38,308.03
364635089145003,05/03/2011 05:39,308.03
364635089145003,05/03/2011 05:40,308.04
364635089145003,05/03/2011 05:41,308.05
364635089145003,05/03/2011 05:42,308.04
364635089145003,05/03/2011 05:43,308.05
364635089145003,05/03/2011 05:44,308.06
364635089145003,05/03/2011 05:45,308.07
364635089145003,05/03/2011 05:46,308.08
364635089145003,05/03/2011 05:47,308.08
364635089145003,05/03/2011 05:48,308.08
364635089145003,05/03/2011 05:49,308.08
364635089145003,05/03/2011 05:50,308.08
364635089145003,05/03/2011 05:51,308.09
364635089145003,05/03/2011 05:52,308.09
364635089145003,05/03/2011 05:53,308.1
364635089145003,05/03/2011 05:54,308.1
364635089145003,05/03/2011 05:55,308.11
364635089145003,05/03/2011 05:56,308.12
364635089145003,05/03/2011 05:57,308.14
364635089145003,05/03/2011 05:58,308.14
364635089145003,05/03/2011 05:59,308.14
364635089145003,05/03/2011 06:00,308.15
364635089145003,05/03/2011 06:01,308.15
364635089145003,05/03/2011 06:02,308.17
364635089145003,05/03/2011 06:03,308.18
364635089145003,05/03/2011 06:04,308.18
364635089145003,05/03/2011 06:05,308.18
364635089145003,05/03/2011 06:06,308.19
364635089145003,05/03/2011 06:07,308.19
364635089145003,05/03/2011 06:08,308.2
364635089145003,05/03/2011 06:09,308.2
364635089145003,05/03/2011 06:10,308.21
364635089145003,05/03/2011 06:11,308.21
364635089145003,05/03/2011 06:12,308.22
364635089145003,05/03/2011 06:13,308.22
364635089145003,05/03/2011 06:14,308.23
364635089145003,05/03/2011 06:15,308.23
364635089145003,05/03/2011 06:16,308.23
364635089145003,05/03/2011 06:17,308.23
364635089145003,05/03/2011 06:18,308.24
364635089145003,05/03/2011 06:19,308.25
364635089145003,05/03/2011 06:20,308.25
364635089145003,05/03/2011 06:21,308.26
364635089145003,05/03/2011 06:22,308.27
364635089145003,05/03/2011 06:23,308.26
364635089145003,05/03/2011 06:24,308.27
364635089145003,05/03/2011 06:25,308.28
364635089145003,05/03/2011 06:26,308.29
364635089145003,05/03/2011 06:27,308.29
364635089145003,05/03/2011 06:28,308.29
364635089145003,05/03/2011 06:29,308.3
364635089145003,05/03/2011 06:30,308.3
364635089145003,05/03/2011 06:31,308.31
364635089145003,05/03/2011 06:32,308.31
364635089145003,05/03/2011 06:33,308.32
364635089145003,05/03/2011 06:34,308.32
364635089145003,05/03/2011 06:35,308.32
364635089145003,05/03/2011 06:36,308.33
364635089145003,05/03/2011 06:37,308.33
364635089145003,05/03/2011 06:38,308.33
364635089145003,05/03/2011 06:39,308.34
364635089145003,05/03/2011 06:40,308.35
364635089145003,05/03/2011 06:41,308.35
364635089145003,05/03/2011 06:42,308.36
364635089145003,05/03/2011 06:43,308.35
364635089145003,05/03/2011 06:44,308.37
364635089145003,05/03/2011 06:45,308.37
364635089145003,05/03/2011 06:46,308.37
364635089145003,05/03/2011 06:47,308.37
364635089145003,05/03/2011 06:48,308.38
364635089145003,05/03/2011 06:49,308.38
364635089145003,05/03/2011 06:50,308.39
364635089145003,05/03/2011 06:51,308.39
364635089145003,05/03/2011 06:52,308.4
364635089145003,05/03/2011 06:53,308.39
364635089145003,05/03/2011 06:54,308.39
364635089145003,05/03/2011 06:55,308.41
364635089145003,05/03/2011 06:56,308.41
364635089145003,05/03/2011 06:57,308.42
364635089145003,05/03/2011 06:58,308.42
364635089145003,05/03/2011 06:59,308.43
364635089145003,05/03/2011 07:00,308.42
364635089145003,05/03/2011 07:01,308.43
364635089145003,05/03/2011 07:02,308.42
364635089145003,05/03/2011 07:03,308.43
364635089145003,05/03/2011 07:04,308.44
364635089145003,05/03/2011 07:05,308.44
364635089145003,05/03/2011 07:06,308.45
364635089145003,05/03/2011 07:07,308.45
364635089145003,05/03/2011 07:08,308.46
364635089145003,05/03/2011 07:09,308.46
364635089145003,05/03/2011 07:10,308.46
364635089145003,05/03/2011 07:11,308.46
364635089145003,05/03/2011 07:12,308.46
364635089145003,05/03/2011 07:13,308.46
364635089145003,05/03/2011 07:14,308.46
364635089145003,05/03/2011 07:15,308.47
364635089145003,05/03/2011 07:16,308.48
364635089145003,05/03/2011 07:17,308.48
364635089145003,05/03/2011 07:18,308.48
364635089145003,05/03/2011 07:19,308.49
364635089145003,05/03/2011 07:20,308.49
364635089145003,05/03/2011 07:21,308.5
364635089145003,05/03/2011 07:22,308.5
364635089145003,05/03/2011 07:23,308.49
364635089145003,05/03/2011 07:24,308.5
364635089145003,05/03/2011 07:25,308.5
364635089145003,05/03/2011 07:26,308.5
364635089145003,05/03/2011 07:27,308.51
364635089145003,05/03/2011 07:28,308.51
364635089145003,05/03/2011 07:29,308.51
364635089145003,05/03/2011 07:30,308.52
364635089145003,05/03/2011 07:31,308.52
364635089145003,05/03/2011 07:32,308.52
364635089145003,05/03/2011 07:33,308.52
364635089145003,05/03/2011 07:34,308.52
364635089145003,05/03/2011 07:35,308.52
364635089145003,05/03/2011 07:36,308.53
364635089145003,05/03/2011 07:37,308.53
364635089145003,05/03/2011 07:38,308.54
364635089145003,05/03/2011 07:39,308.54
364635089145003,05/03/2011 07:40,308.54
364635089145003,05/03/2011 07:41,308.55
364635089145003,05/03/2011 07:42,308.54
364635089145003,05/03/2011 07:43,308.55
364635089145003,05/03/2011 07:44,308.55
364635089145003,05/03/2011 07:45,308.55
364635089145003,05/03/2011 07:46,308.56
364635089145003,05/03/2011 07:47,308.55
364635089145003,05/03/2011 07:48,308.57
364635089145003,05/03/2011 07:49,308.57
364635089145003,05/03/2011 07:50,308.57
364635089145003,05/03/2011 07:51,308.57
364635089145003,05/03/2011 07:52,308.57
364635089145003,05/03/2011 07:53,308.57
364635089145003,05/03/2011 07:54,308.58
364635089145003,05/03/2011 07:55,308.58
364635089145003,05/03/2011 07:56,308.58
364635089145003,05/03/2011 07:57,308.58
364635089145003,05/03/2011 07:58,308.58
364635089145003,05/03/2011 07:59,308.58
364635089145003,05/03/2011 08:00,308.58
364635089145003,05/03/2011 08:01,308.58
364635089145003,05/03/2011 08:02,308.58
364635089145003,05/03/2011 08:03,308.6
364635089145003,05/03/2011 08:04,308.6
364635089145003,05/03/2011 08:05,308.6
364635089145003,05/03/2011 08:06,308.6
364635089145003,05/03/2011 08:07,308.6
364635089145003,05/03/2011 08:08,308.6
364635089145003,05/03/2011 08:09,308.61
364635089145003,05/03/2011 08:10,308.61
364635089145003,05/03/2011 08:11,308.6
364635089145003,05/03/2011 08:12,308.61
364635089145003,05/03/2011 08:13,308.62
364635089145003,05/03/2011 08:14,308.61
364635089145003,05/03/2011 08:15,308.61
364635089145003,05/03/2011 08:16,308.61
364635089145003,05/03/2011 08:17,308.62
364635089145003,05/03/2011 08:18,308.62
364635089145003,05/03/2011 08:19,308.62
364635089145003,05/03/2011 08:20,308.62
364635089145003,05/03/2011 08:21,308.63
364635089145003,05/03/2011 08:22,308.64
364635089145003,05/03/2011 08:23,308.63
364635089145003,05/03/2011 08:24,308.64
364635089145003,05/03/2011 08:25,308.64
364635089145003,05/03/2011 08:26,308.64
364635089145003,05/03/2011 08:27,308.65
364635089145003,05/03/2011 08:28,308.65
364635089145003,05/03/2011 08:29,308.64
364635089145003,05/03/2011 08:30,308.65
364635089145003,05/03/2011 08:31,308.66
364635089145003,05/03/2011 08:32,308.65
364635089145003,05/03/2011 08:33,308.65
364635089145003,05/03/2011 08:34,308.67
364635089145003,05/03/2011 08:35,308.66
364635089145003,05/03/2011 08:36,308.66
364635089145003,05/03/2011 08:37,308.66
364635089145003,05/03/2011 08:38,308.66
364635089145003,05/03/2011 08:39,308.66
364635089145003,05/03/2011 08:40,308.66
364635089145003,05/03/2011 08:41,308.68
364635089145003,05/03/2011 08:42,308.67
364635089145003,05/03/2011 08:43,308.67
364635089145003,05/03/2011 08:44,308.67
364635089145003,05/03/2011 08:45,308.66
364635089145003,05/03/2011 08:46,308.68
364635089145003,05/03/2011 08:47,308.67
364635089145003,05/03/2011 08:48,308.68